Flag for U.S.A. Weather past 2 weeks in Wichita, Kansas, U.S.A.

Now
84 °F

Passing clouds.


Feels Like: 88 °F
Forecast: 67 / 84 °F
Wind: 15 mph from South

Location: Wichita Mid-Continent Airport

Current Time: Aug 28, 2015 at 7:58:24 PM

Latest Report: Aug 28, 2015 at 6:53 PM


Visibility: 10 mi

Pressure: 29.83 "Hg

Humidity: 61%

Dew point: 69 °F

Location of WichitaLocation

Historic Weather in Wichita — Graph

°F

Wichita temperature yesterday

Maximum temperature yesterday: 89 °F (at 3:53 PM)
Minimum temperature yesterday: 71 °F (at 6:53 AM)
Average temperature yesterday: 79 °F

Past Weeks' High & Low Weather Summary

 TemperatureHumidityPressure
High90 °F (Aug 17, 1:53 PM)93% (Aug 23, 2:03 AM)30.20 "Hg (Aug 23, 2:03 AM)
Low56 °F (Aug 20, 5:53 AM)29% (Aug 24, 2:53 PM)29.67 "Hg (Aug 18, 3:53 PM)
Average75 °F64%29.98 "Hg
* Reported Aug 13 6:53 PM — Aug 28 6:53 PM, Wichita, Weather by CustomWeather, © 2015

Note: Actual official high and low records may vary slightly from our data, if they occured in-between our weather recording intervals... More about our weather records

Advertising

Wichita weather history for previous 24 hours

 ConditionsComfort  
Time TempWeatherWind HumidityBarometerVisibility
6:53 PM
Fri, Aug 28
84 °FPassing clouds.15 mph61%29.83 "Hg10 mi
5:53 PM89 °FScattered clouds.7 mph53%29.81 "Hg10 mi
4:53 PM90 °FScattered clouds.9 mph52%29.82 "Hg10 mi
3:53 PM88 °FScattered clouds.10 mph54%29.83 "Hg10 mi
2:53 PM87 °FScattered clouds.9 mph55%29.85 "Hg10 mi
1:53 PM86 °FPassing clouds.12 mph55%29.86 "Hg10 mi
12:53 PM84 °FScattered clouds.15 mph59%29.88 "Hg10 mi
11:53 AM80 °FScattered clouds.15 mph64%29.90 "Hg10 mi
10:53 AM77 °FBroken clouds.18 mph71%29.90 "Hg10 mi
9:53 AM74 °FPartly sunny.16 mph82%29.90 "Hg10 mi
8:53 AM71 °FBroken clouds.12 mph87%29.89 "Hg10 mi
7:53 AM72 °FMostly cloudy.15 mph84%29.88 "Hg10 mi
6:53 AM72 °FMostly cloudy.13 mph87%29.88 "Hg10 mi
5:53 AM73 °FMostly cloudy.10 mph81%29.87 "Hg10 mi
4:53 AM74 °FLight rain. Mostly cloudy.10 mph76%29.88 "Hg10 mi
3:53 AM73 °FPassing clouds.10 mph81%29.88 "Hg10 mi
2:53 AM74 °FMostly cloudy.9 mph88%29.91 "Hg10 mi
1:53 AM73 °FOvercast.6 mph90%29.92 "Hg10 mi
12:53 AM73 °FLight rain. Mostly cloudy.6 mph90%29.94 "Hg8 mi
11:53 PM
Thu, Aug 27
74 °FMostly cloudy.8 mph76%29.93 "Hg10 mi
10:53 PM75 °FOvercast.13 mph71%29.89 "Hg10 mi
9:53 PM77 °FOvercast.17 mph71%29.88 "Hg10 mi
8:53 PM81 °FOvercast.16 mph60%29.87 "Hg10 mi
7:53 PM81 °FPartly sunny.15 mph58%29.88 "Hg10 mi
Weather by CustomWeather, © 2015

See weather overviewHow to use our weather pages